Tracking 19485 objects as of 22-Jan-2019
HD Live streaming from Space Station
objects crossing your sky now

NAVSTAR 44 (USA 135)

Track NAVSTAR 44 (USA 135) now!
NAVSTAR 44 (USA 135) is classified as:


NORAD ID: 25030
Int'l Code: 1997-067A
Perigee: 19,715.8 km
Apogee: 20,669.8 km
Inclination: 56.1 °
Period: 718.1 minutes
Semi major axis: 26563 km
RCS: 2.4068 m2 (large)
Launch date: November 6, 1997
Source: United States (US)
Launch site: AIR FORCE EASTERN TEST RANGE (AFETR)
aabbcc
Your satellite tracking list
Your tracking list is empty




NASA's NSSDC Master Catalog

Two Line Element Set (TLE):
1 25030U 97067A   19020.63285503 +.00000049 +00000-0 +00000-0 0  9996
2 25030 056.1393 266.0781 0179558 229.6976 031.6188 02.00524735155416
Source of the keplerian elements: AFSPC